When you browse on this site, cookies collect data to enhance your experience and personalize the content and advertising you see.
Visit our Privacy Policy to learn more. By continuing to use the site, you agree to this use of cookies and data.
  • Em Portugal
  • Lista de países
  • Para 7 dias
  • Temperatura da água
  • Mapa do tempo
  • Widgets de tempo
  • user-avatar
    Iniciar Sessão

    Previsão horária em Sari

    Hoje, 26 Agosto, Segunda-feira

    Tempo Temperatura Precipitação Vento Pressão Humidade
    00:00 +27°C° 0 mm 1 m/s 755 mmHg 49%
    01:00 +26°C° 0 mm 1 m/s 755 mmHg 50%
    02:00 +26°C° 0 mm 1 m/s 755 mmHg 53%
    03:00 +26°C° 0 mm 1 m/s 755 mmHg 55%
    04:00 +26°C° 0 mm 1 m/s 756 mmHg 56%
    05:00 +26°C° 0 mm 1 m/s 756 mmHg 55%
    06:00 +27°C° 0 mm 2 m/s 756 mmHg 54%
    07:00 +28°C° 0 mm 2 m/s 757 mmHg 53%
    08:00 +30°C° 0 mm 3 m/s 757 mmHg 46%
    09:00 +34°C° 0 mm 3 m/s 757 mmHg 38%
    10:00 +36°C° 0 mm 4 m/s 757 mmHg 31%
    11:00 +37°C° 0 mm 4 m/s 757 mmHg 30%
    12:00 +37°C° 0 mm 5 m/s 757 mmHg 29%
    13:00 +39°C° 0 mm 5 m/s 757 mmHg 28%
    14:00 +37°C° 0 mm 5 m/s 756 mmHg 29%
    15:00 +37°C° 0 mm 5 m/s 756 mmHg 31%
    16:00 +36°C° 0 mm 5 m/s 756 mmHg 32%
    17:00 +34°C° 0 mm 4 m/s 756 mmHg 38%
    18:00 +31°C° 0 mm 3 m/s 756 mmHg 44%
    19:00 +29°C° 0 mm 2 m/s 757 mmHg 50%
    20:00 +28°C° 0 mm 2 m/s 757 mmHg 54%
    21:00 +27°C° 0 mm 2 m/s 757 mmHg 58%
    22:00 +26°C° 0 mm 2 m/s 758 mmHg 62%
    23:00 +26°C° 0 mm 2 m/s 758 mmHg 63%

    Amanhã, 27 Agosto, Terça-feira

    Tempo Temperatura Precipitação Vento Pressão Humidade
    00:00 +25°C° 0 mm 2 m/s 758 mmHg 64%
    01:00 +25°C° 0 mm 2 m/s 758 mmHg 66%
    02:00 +25°C° 0 mm 2 m/s 758 mmHg 67%
    03:00 +25°C° 0 mm 2 m/s 758 mmHg 69%
    04:00 +25°C° 0 mm 3 m/s 758 mmHg 71%
    05:00 +25°C° 0 mm 3 m/s 758 mmHg 71%
    06:00 +26°C° 0 mm 3 m/s 759 mmHg 71%
    07:00 +27°C° 0 mm 3 m/s 759 mmHg 71%
    08:00 +28°C° 0 mm 3 m/s 759 mmHg 64%
    09:00 +30°C° 0 mm 3 m/s 758 mmHg 57%
    10:00 +33°C° 0 mm 3 m/s 758 mmHg 50%
    11:00 +34°C° 0 mm 4 m/s 758 mmHg 48%
    12:00 +35°C° 0 mm 5 m/s 757 mmHg 45%
    13:00 +36°C° 0 mm 6 m/s 757 mmHg 42%
    14:00 +35°C° 0 mm 5 m/s 756 mmHg 45%
    15:00 +35°C° 0 mm 4 m/s 756 mmHg 49%
    16:00 +34°C° 0 mm 4 m/s 755 mmHg 52%
    17:00 +31°C° 0 mm 3 m/s 755 mmHg 57%
    18:00 +30°C° 0 mm 2 m/s 755 mmHg 62%
    19:00 +29°C° 0 mm 2 m/s 755 mmHg 67%
    20:00 +28°C° 0 mm 1 m/s 755 mmHg 72%
    21:00 +27°C° 0 mm 1 m/s 755 mmHg 76%
    22:00 +25°C° 0 mm 1 m/s 755 mmHg 81%
    23:00 +25°C° 0 mm 1 m/s 755 mmHg 82%

    Depois de amanhã, 28 Agosto, Quarta-feira

    Tempo Temperatura Precipitação Vento Pressão Humidade
    00:00 +25°C° 0 mm 1 m/s 755 mmHg 83%
    01:00 +25°C° 0 mm 1 m/s 755 mmHg 84%
    02:00 +25°C° 0 mm 1 m/s 755 mmHg 85%
    03:00 +24°C° 0 mm 1 m/s 755 mmHg 85%
    04:00 +24°C° 0 mm 1 m/s 755 mmHg 86%
    05:00 +25°C° 0 mm 1 m/s 755 mmHg 83%
    06:00 +25°C° 0 mm 1 m/s 755 mmHg 81%
    07:00 +26°C° 0 mm 1 m/s 756 mmHg 78%
    08:00 +28°C° 0 mm 2 m/s 756 mmHg 71%
    09:00 +30°C° 0 mm 3 m/s 756 mmHg 64%
    10:00 +31°C° 0 mm 3 m/s 756 mmHg 58%
    11:00 +33°C° 0 mm 4 m/s 756 mmHg 57%
    12:00 +33°C° 0 mm 4 m/s 755 mmHg 55%
    13:00 +33°C° 0 mm 4 m/s 755 mmHg 54%
    14:00 +33°C° 0 mm 4 m/s 755 mmHg 55%
    15:00 +33°C° 0 mm 5 m/s 755 mmHg 55%
    16:00 +33°C° 0 mm 5 m/s 755 mmHg 55%
    17:00 +32°C° 0 mm 4 m/s 755 mmHg 59%
    18:00 +29°C° 0 mm 3 m/s 755 mmHg 62%
    19:00 +28°C° 0 mm 2 m/s 755 mmHg 65%
    20:00 +27°C° 0 mm 2 m/s 756 mmHg 69%
    21:00 +26°C° 0 mm 2 m/s 756 mmHg 73%
    22:00 +25°C° 0 mm 1 m/s 757 mmHg 77%
    23:00 +25°C° 0 mm 2 m/s 756 mmHg 78%

    29 Agosto, Quinta-feira

    Tempo Temperatura Precipitação Vento Pressão Humidade
    00:00 +25°C° 0 mm 2 m/s 756 mmHg 79%
    01:00 +24°C° 0 mm 2 m/s 756 mmHg 81%
    02:00 +24°C° 0 mm 2 m/s 756 mmHg 81%
    03:00 +24°C° 0 mm 1 m/s 756 mmHg 81%
    04:00 +24°C° 0 mm 1 m/s 757 mmHg 81%
    05:00 +24°C° 0 mm 1 m/s 757 mmHg 78%
    06:00 +25°C° 0 mm 1 m/s 757 mmHg 75%
    07:00 +26°C° 0 mm 1 m/s 757 mmHg 72%
    08:00 +28°C° 0 mm 2 m/s 757 mmHg 64%
    09:00 +30°C° 0 mm 2 m/s 757 mmHg 56%
    10:00 +32°C° 0 mm 2 m/s 757 mmHg 48%
    11:00 +34°C° 0 mm 3 m/s 756 mmHg 45%
    12:00 +35°C° 0 mm 4 m/s 756 mmHg 42%
    13:00 +36°C° 0 mm 5 m/s 756 mmHg 39%
    14:00 +36°C° 0 mm 4 m/s 756 mmHg 40%
    15:00 +35°C° 0 mm 4 m/s 755 mmHg 40%
    16:00 +35°C° 0 mm 4 m/s 755 mmHg 41%
    17:00 +33°C° 0 mm 3 m/s 755 mmHg 46%
    18:00 +30°C° 0 mm 3 m/s 755 mmHg 51%
    19:00 +28°C° 0 mm 2 m/s 755 mmHg 57%
    20:00 +27°C° 0 mm 2 m/s 756 mmHg 61%
    21:00 +26°C° 0 mm 1 m/s 756 mmHg 65%
    22:00 +25°C° 0 mm 1 m/s 756 mmHg 70%
    23:00 +25°C° 0 mm 1 m/s 756 mmHg 70%

    30 Agosto, Sexta-feira

    Tempo Temperatura Precipitação Vento Pressão Humidade
    00:00 +25°C° 0 mm 2 m/s 756 mmHg 70%
    01:00 +24°C° 0 mm 2 m/s 756 mmHg 71%
    02:00 +24°C° 0 mm 2 m/s 756 mmHg 72%
    03:00 +24°C° 0 mm 2 m/s 756 mmHg 73%
    04:00 +24°C° 0 mm 3 m/s 756 mmHg 75%
    05:00 +25°C° 0 mm 3 m/s 756 mmHg 72%
    06:00 +25°C° 0 mm 3 m/s 756 mmHg 70%
    07:00 +26°C° 0 mm 3 m/s 757 mmHg 68%
    08:00 +28°C° 0 mm 3 m/s 756 mmHg 62%
    09:00 +30°C° 0 mm 3 m/s 756 mmHg 56%
    10:00 +33°C° 0 mm 3 m/s 756 mmHg 50%
    11:00 +34°C° 0 mm 3 m/s 756 mmHg 47%
    12:00 +35°C° 0 mm 4 m/s 755 mmHg 44%
    13:00 +35°C° 0 mm 5 m/s 755 mmHg 42%
    14:00 +35°C° 0 mm 5 m/s 755 mmHg 42%
    15:00 +34°C° 0 mm 5 m/s 754 mmHg 43%
    16:00 +34°C° 0 mm 5 m/s 754 mmHg 44%
    17:00 +31°C° 0 mm 3 m/s 754 mmHg 50%
    18:00 +29°C° 0 mm 2 m/s 753 mmHg 56%
    19:00 +27°C° 0 mm 1 m/s 753 mmHg 61%
    20:00 +26°C° 0 mm 1 m/s 753 mmHg 65%
    21:00 +26°C° 0 mm 2 m/s 754 mmHg 68%
    22:00 +25°C° 0 mm 3 m/s 754 mmHg 72%
    23:00 +25°C° 0 mm 3 m/s 754 mmHg 71%

    31 Agosto, Sábado

    Tempo Temperatura Precipitação Vento Pressão Humidade
    00:00 +25°C° 0 mm 3 m/s 753 mmHg 70%
    01:00 +25°C° 0 mm 3 m/s 753 mmHg 69%
    02:00 +26°C° 0 mm 3 m/s 752 mmHg 66%
    03:00 +27°C° 0 mm 4 m/s 752 mmHg 63%
    04:00 +27°C° 0 mm 4 m/s 752 mmHg 60%
    05:00 +27°C° 0 mm 3 m/s 752 mmHg 65%
    06:00 +26°C° 0 mm 3 m/s 752 mmHg 69%
    07:00 +26°C° 0 mm 2 m/s 753 mmHg 73%
    08:00 +27°C° 0 mm 3 m/s 753 mmHg 70%
    09:00 +28°C° 0 mm 3 m/s 753 mmHg 67%
    10:00 +29°C° 0 mm 4 m/s 754 mmHg 64%
    11:00 +29°C° 0 mm 4 m/s 754 mmHg 62%
    12:00 +30°C° 0 mm 4 m/s 754 mmHg 60%
    13:00 +30°C° 0 mm 4 m/s 754 mmHg 57%
    14:00 +30°C° 0 mm 4 m/s 754 mmHg 59%
    15:00 +30°C° 0 mm 4 m/s 754 mmHg 60%
    16:00 +29°C° 0 mm 3 m/s 754 mmHg 61%
    17:00 +28°C° 0.1 mm 3 m/s 754 mmHg 65%
    18:00 +27°C° 0.1 mm 2 m/s 754 mmHg 68%
    19:00 +27°C° 0.1 mm 1 m/s 755 mmHg 71%
    20:00 +26°C° 0 mm 1 m/s 755 mmHg 72%
    21:00 +26°C° 0 mm 1 m/s 755 mmHg 73%
    22:00 +26°C° 0 mm 1 m/s 756 mmHg 74%
    23:00 +25°C° 0 mm 1 m/s 756 mmHg 74%
    Mostrar mais